Location: Gleizolles
(44.4833°N, 6.7667°E)
Time: 23:57:14
(UTC+00:00)

Vanguard 2 Rocket - Pass Details

Date: 17 June 2024
Orbit: 555 x 3302 km, 32.9° (Epoch: 24 July)

Event Time Altitude Azimuth Distance (km) Brightness Sun altitude
Rises 05:39:57 0° 256° (WSW) 7,217 10.8 17.2°
Reaches altitude 10° 05:45:16 10° 252° (WSW) 6,031 10.5 18.1°
Maximum altitude 06:02:04 51° 184° (S) 2,776 9.5 21.0°
Drops below altitude 10° 06:12:29 10° 113° (ESE) 3,867 11.2 22.8°
Sets 06:15:07 0° 108° (ESE) 4,548 11.5 23.3°
